Regional Weather Roundup
Issued by NWS

Home | Current Version | Previous Version | Text Only | Print | Product List | Glossary On
Versions: 1 2 3 4 5 6 7 8 9 10 11 12 13 14 15 16 17 18 19 20 21 22 23 24 25 26 27 28 29 30 31 32 33 34 35 36 37 38 39 40 41 42 43 44 45 46 47 48 49 50
000
ASUS45 KPSR 181100
RWRAZ

PRELIMINARY ARIZONA REGIONAL HOURLY WEATHER ROUNDUP
NATIONAL WEATHER SERVICE PHOENIX AZ
400 AM MST THU DEC 18 2014

NOTE: FAIR INDICATES FEW OR NO CLOUDS BELOW 12,000 FEET WITH NO
SIGNIFICANT WEATHER AND/OR OBSTRUCTIONS TO VISIBILITY.

AZZ001>003-036-181200-
NORTHWEST ARIZONA

CITY           SKY/WX    TMP DP  RH WIND       PRES   REMARKS
KINGMAN        CLOUDY    39  36  89 SE7       30.10S WCI  34
$$

AZZ004>008-015-016-018-181200-
NORTH CENTRAL ARIZONA

CITY           SKY/WX    TMP DP  RH WIND       PRES   REMARKS
GRAND CANYON   CLOUDY    30  30 100 CALM      30.09F
PRESCOTT       CLOUDY    33  29  85 S3        30.09S
FLAGSTAFF      NOT AVBL
PAYSON         CLOUDY    34  34 100 CALM      30.11F
PAGE           CLOUDY    38  33  82 CALM      30.09S
$$

AZZ009>014-017-181200-
NORTHEAST ARIZONA

CITY           SKY/WX    TMP DP  RH WIND       PRES   REMARKS
WINSLOW        NOT AVBL
SAINT JOHNS    CLOUDY    31  28  89 S5        30.10S WCI  26
WINDOW ROCK    CLOUDY    29  26  89 S3        30.10S
SHOW LOW       LGT SNOW  30  28  93 S3        30.12S
$$

AZZ023-181200-
GREATER PHOENIX AREA

CITY           SKY/WX    TMP DP  RH WIND       PRES   REMARKS
PHOENIX        CLOUDY    53  50  89 E5        30.08F
DEER VALLEY    CLOUDY    50  45  83 NE3       30.09F
SCOTTSDALE     CLOUDY    51  47  86 CALM      30.10F
$$

AZZ027-028-181200-
SOUTHWEST MARICOPA COUNTY AND PINAL COUNTY

CITY           SKY/WX    TMP DP  RH WIND       PRES   REMARKS
CASA GRANDE    CLOUDY    46  45  93 CALM      30.10F
GILA BEND      PTSUNNY   47  46  96 N5        30.10F
$$

AZZ503-504-507>509-181200-
SOUTHEAST ARIZONA

CITY           SKY/WX    TMP DP  RH WIND       PRES   REMARKS
TUCSON         CLOUDY    48  46  93 CALM      30.13S
NOGALES        LGT RAIN  46  43  89 CALM      30.11F
SIERRA VISTA   FOG       43  43 100 VRB1      30.12F VSB 1/2
SAFFORD        PTCLDY    43  42  97 NE3       30.13S
$$

AZZ020-021-025-026-031-181200-
SOUTHWEST ARIZONA

CITY           SKY/WX    TMP DP  RH WIND       PRES   REMARKS
YUMA           CLOUDY   N/A N/A N/A CALM      30.08S
$$

CAZ031-033-041-043-047-048-061-181200-
SOUTHERN CALIFORNIA

CITY           SKY/WX    TMP DP  RH WIND       PRES   REMARKS
DOWNTOWN L.A.  CLOUDY    50  45  83 CALM      30.12R
L.A. AIRPORT   MOCLDY    51  45  79 E5        30.12S
SAN DIEGO      PTCLDY    55  45  68 CALM      30.15R
BURBANK        CLEAR     47  42  83 CALM      30.11S
ONTARIO        MOCLDY    50  44  80 CALM      30.12R
RIVERSIDE      MOCLDY    49  45  86 CALM      30.12S
PALM SPRINGS   CLEAR     51  47  86 N3        30.12S
EL CENTRO NAS  CLEAR     48  41  76 W7        30.09R
IMPERIAL       CLEAR     49  42  77 CALM      30.09R
BLYTHE         CLOUDY    52  51  97 N7        30.09S
$$

NVZ020-UTZ003-181200-
SOUTHERN NEVADA-UTAH

CITY           SKY/WX    TMP DP  RH WIND       PRES   REMARKS
LAS VEGAS      NOT AVBL
SALT LAKE CITY MOCLDY    32  29  88 SE6       30.07S WCI  26
$$

NMZ009-TXZ055-181200-
NEW MEXICO-WEST TEXAS

CITY           SKY/WX    TMP DP  RH WIND       PRES   REMARKS
ALBUQUERQUE    PTCLDY    30  28  92 E6        30.13S WCI  24
EL PASO        MOCLDY    41  34  76 E3        30.13S
$$


........................KEY........................
SKY/WX - SKY CONDITION/WEATHER
TMP    - TEMPERATURE IN FAHRENHEIT
DP     - DEW POINT IN FAHRENHEIT
RH     - RELATIVE HUMIDITY IN PERCENT
WIND   - DIRECTION AND SPEED IN MILES PER HOUR (MPH)
VRB    - VARIABLE WIND DIRECTION
PRES   - MEAN SEA LEVEL PRESSURE IN INCHES OF MERCURY
         F - FALLING PRESSURE   R - RISING PRESSURE
         S - STEADY PRESSURE
VSB    - VISIBILITY IN MILES
HX     - HEAT INDEX IN FAHRENHEIT
WCI    - WIND CHILL INDEX IN FAHRENHEIT
TC     - TEMPERATURE IN CELSIUS WHICH IS ALSO KNOWN AS
         TEMPERATURE IN CENTIGRADE
AFB    - AIR FORCE BASE
         LUKE AFB IS LUKE AIR FORCE BASE
         DAVIS-MONTHAN IS DAVIS-MONTHAN AIR FORCE BASE
NAS    - NAVAL AIR STATION
         EL CENTRO NAS IS EL CENTRO NAVAL AIR STATION
N/A    - NOT AVAILABLE



USA.gov is the U.S. government's official web portal to all federal, state and local government web resources and services.